• En España
  • Lista de países
  • Para 7 días
  • Temperatura del agua
  • Mapa Satelital
  • El tiempo en el mapa
  • Informadores
  • user-avatar
    Iniciar sesión

    Tiempo cada hora Luanda

    Hoy, 25 Noviembre, Sábado

    Tiempo Temperatura Precipitaciones Viento Presión Humedad
    00:00 +27°C° 0 mm 2 mps 754 mmHg 85%
    01:00 +27°C° 0 mm 1 mps 754 mmHg 87%
    02:00 +26°C° 0 mm 1 mps 754 mmHg 87%
    03:00 +26°C° 0 mm 1 mps 754 mmHg 87%
    04:00 +26°C° 0 mm 1 mps 753 mmHg 87%
    05:00 +27°C° 0 mm 1 mps 754 mmHg 85%
    06:00 +27°C° 0 mm 1 mps 754 mmHg 83%
    07:00 +27°C° 0 mm 1 mps 754 mmHg 81%
    08:00 +29°C° 0 mm 1 mps 754 mmHg 75%
    09:00 +30°C° 0 mm 1 mps 755 mmHg 69%
    10:00 +31°C° 0 mm 1 mps 755 mmHg 63%
    11:00 +31°C° 0 mm 2 mps 754 mmHg 62%
    12:00 +31°C° 0 mm 2 mps 753 mmHg 60%
    13:00 +33°C° 0 mm 3 mps 753 mmHg 59%
    14:00 +33°C° 0 mm 3 mps 752 mmHg 60%
    15:00 +31°C° 0 mm 3 mps 752 mmHg 60%
    16:00 +32°C° 0 mm 4 mps 751 mmHg 61%
    17:00 +30°C° 0 mm 3 mps 751 mmHg 66%
    18:00 +29°C° 0 mm 3 mps 752 mmHg 71%
    19:00 +28°C° 0 mm 3 mps 752 mmHg 76%
    20:00 +28°C° 0 mm 3 mps 753 mmHg 78%
    21:00 +27°C° 0 mm 3 mps 754 mmHg 80%
    22:00 +27°C° 0 mm 2 mps 755 mmHg 81%
    23:00 +27°C° 0 mm 2 mps 754 mmHg 83%

    Mañana, 26 Noviembre, Domingo

    Tiempo Temperatura Precipitaciones Viento Presión Humedad
    00:00 +27°C° 0 mm 2 mps 754 mmHg 84%
    01:00 +27°C° 0 mm 2 mps 754 mmHg 85%
    02:00 +26°C° 0 mm 1 mps 754 mmHg 86%
    03:00 +26°C° 0 mm 1 mps 754 mmHg 87%
    04:00 +26°C° 0 mm 1 mps 753 mmHg 88%
    05:00 +26°C° 0 mm 1 mps 754 mmHg 87%
    06:00 +27°C° 0 mm 1 mps 754 mmHg 86%
    07:00 +27°C° 0 mm 1 mps 754 mmHg 85%
    08:00 +28°C° 0,1 mm 1 mps 755 mmHg 79%
    09:00 +29°C° 0,1 mm 1 mps 755 mmHg 74%
    10:00 +30°C° 0,1 mm 1 mps 755 mmHg 68%
    11:00 +31°C° 0 mm 1 mps 755 mmHg 65%
    12:00 +31°C° 0 mm 2 mps 754 mmHg 61%
    13:00 +32°C° 0 mm 2 mps 753 mmHg 58%
    14:00 +33°C° 0 mm 3 mps 753 mmHg 60%
    15:00 +31°C° 0 mm 3 mps 753 mmHg 63%
    16:00 +30°C° 0 mm 3 mps 752 mmHg 66%
    17:00 +29°C° 0 mm 3 mps 753 mmHg 71%
    18:00 +28°C° 0 mm 2 mps 753 mmHg 75%
    19:00 +28°C° 0 mm 2 mps 754 mmHg 79%
    20:00 +27°C° 0,2 mm 2 mps 755 mmHg 81%
    21:00 +27°C° 0,2 mm 2 mps 755 mmHg 82%
    22:00 +27°C° 0,2 mm 2 mps 756 mmHg 83%
    23:00 +27°C° 0,2 mm 2 mps 755 mmHg 84%

    Pasado mañana, 27 Noviembre, Lunes

    Tiempo Temperatura Precipitaciones Viento Presión Humedad
    00:00 +27°C° 0,2 mm 2 mps 755 mmHg 84%
    01:00 +27°C° 0,2 mm 2 mps 755 mmHg 85%
    02:00 +27°C° 0,9 mm 2 mps 754 mmHg 86%
    03:00 +26°C° 0,9 mm 2 mps 754 mmHg 86%
    04:00 +26°C° 0,9 mm 2 mps 754 mmHg 87%
    05:00 +26°C° 0,7 mm 2 mps 754 mmHg 86%
    06:00 +26°C° 0,7 mm 2 mps 755 mmHg 86%
    07:00 +26°C° 0,7 mm 2 mps 755 mmHg 86%
    08:00 +27°C° 0,4 mm 2 mps 756 mmHg 83%
    09:00 +27°C° 0,4 mm 2 mps 756 mmHg 81%
    10:00 +28°C° 0,4 mm 2 mps 756 mmHg 78%
    11:00 +28°C° 0,1 mm 2 mps 756 mmHg 74%
    12:00 +29°C° 0,1 mm 2 mps 755 mmHg 70%
    13:00 +30°C° 0,1 mm 2 mps 755 mmHg 66%
    14:00 +30°C° 0 mm 2 mps 754 mmHg 63%
    15:00 +31°C° 0 mm 2 mps 753 mmHg 60%
    16:00 +33°C° 0 mm 3 mps 753 mmHg 57%
    17:00 +30°C° 0 mm 2 mps 753 mmHg 63%
    18:00 +29°C° 0 mm 2 mps 754 mmHg 69%
    19:00 +28°C° 0 mm 2 mps 754 mmHg 75%
    20:00 +28°C° 0 mm 2 mps 755 mmHg 78%
    21:00 +27°C° 0 mm 2 mps 755 mmHg 81%
    22:00 +27°C° 0 mm 2 mps 755 mmHg 83%
    23:00 +27°C° 0 mm 2 mps 755 mmHg 84%

    28 Noviembre, Martes

    Tiempo Temperatura Precipitaciones Viento Presión Humedad
    00:00 +26°C° 0 mm 2 mps 754 mmHg 85%
    01:00 +26°C° 0 mm 2 mps 754 mmHg 86%
    02:00 +26°C° 0 mm 2 mps 754 mmHg 87%
    03:00 +26°C° 0 mm 2 mps 753 mmHg 88%
    04:00 +25°C° 0 mm 1 mps 753 mmHg 88%
    05:00 +26°C° 0 mm 2 mps 754 mmHg 86%
    06:00 +26°C° 0 mm 2 mps 754 mmHg 85%
    07:00 +26°C° 0 mm 2 mps 754 mmHg 83%
    08:00 +28°C° 0 mm 2 mps 755 mmHg 74%
    09:00 +30°C° 0 mm 1 mps 755 mmHg 65%
    10:00 +32°C° 0 mm 1 mps 755 mmHg 56%
    11:00 +34°C° 0 mm 2 mps 754 mmHg 53%
    12:00 +35°C° 0 mm 3 mps 754 mmHg 49%
    13:00 +36°C° 0 mm 4 mps 753 mmHg 46%
    14:00 +35°C° 0 mm 4 mps 752 mmHg 49%
    15:00 +34°C° 0 mm 4 mps 752 mmHg 52%
    16:00 +33°C° 0 mm 5 mps 752 mmHg 56%
    17:00 +32°C° 0 mm 4 mps 752 mmHg 61%
    18:00 +29°C° 0 mm 4 mps 753 mmHg 67%
    19:00 +28°C° 0 mm 4 mps 753 mmHg 73%
    20:00 +28°C° 0 mm 3 mps 754 mmHg 75%
    21:00 +27°C° 0 mm 3 mps 754 mmHg 77%
    22:00 +27°C° 0 mm 3 mps 755 mmHg 79%
    23:00 +27°C° 0 mm 2 mps 754 mmHg 81%

    29 Noviembre, Miércoles

    Tiempo Temperatura Precipitaciones Viento Presión Humedad
    00:00 +27°C° 0 mm 2 mps 754 mmHg 82%
    01:00 +27°C° 0 mm 2 mps 754 mmHg 83%
    02:00 +26°C° 0 mm 2 mps 754 mmHg 84%
    03:00 +26°C° 0 mm 2 mps 753 mmHg 86%
    04:00 +26°C° 0 mm 2 mps 753 mmHg 87%
    05:00 +26°C° 0 mm 2 mps 754 mmHg 85%
    06:00 +27°C° 0 mm 2 mps 754 mmHg 83%
    07:00 +27°C° 0 mm 2 mps 755 mmHg 82%
    08:00 +28°C° 0 mm 2 mps 755 mmHg 77%
    09:00 +29°C° 0 mm 2 mps 755 mmHg 72%
    10:00 +29°C° 0 mm 2 mps 755 mmHg 67%
    11:00 +30°C° 0 mm 2 mps 754 mmHg 64%
    12:00 +31°C° 0 mm 2 mps 753 mmHg 61%
    13:00 +33°C° 0 mm 3 mps 752 mmHg 58%
    14:00 +33°C° 0 mm 3 mps 752 mmHg 59%
    15:00 +33°C° 0 mm 4 mps 752 mmHg 59%
    16:00 +33°C° 0 mm 4 mps 751 mmHg 60%
    17:00 +30°C° 0 mm 4 mps 752 mmHg 67%
    18:00 +29°C° 0 mm 4 mps 753 mmHg 73%
    19:00 +27°C° 0 mm 4 mps 753 mmHg 80%
    20:00 +27°C° 0 mm 4 mps 754 mmHg 81%
    21:00 +27°C° 0 mm 3 mps 754 mmHg 82%
    22:00 +27°C° 0 mm 3 mps 755 mmHg 83%
    23:00 +27°C° 0 mm 3 mps 755 mmHg 83%

    30 Noviembre, Jueves

    Tiempo Temperatura Precipitaciones Viento Presión Humedad
    00:00 +27°C° 0 mm 2 mps 754 mmHg 84%
    01:00 +27°C° 0 mm 2 mps 754 mmHg 85%
    02:00 +27°C° 0,1 mm 2 mps 754 mmHg 85%
    03:00 +27°C° 0,1 mm 3 mps 754 mmHg 84%
    04:00 +27°C° 0,1 mm 3 mps 754 mmHg 84%
    05:00 +27°C° 0,1 mm 3 mps 755 mmHg 84%
    06:00 +27°C° 0,1 mm 3 mps 755 mmHg 84%
    07:00 +27°C° 0,1 mm 3 mps 755 mmHg 83%
    08:00 +27°C° 0 mm 3 mps 755 mmHg 79%
    09:00 +28°C° 0 mm 2 mps 755 mmHg 75%
    10:00 +29°C° 0 mm 2 mps 755 mmHg 70%
    11:00 +29°C° 0,2 mm 2 mps 755 mmHg 71%
    12:00 +29°C° 0,2 mm 3 mps 754 mmHg 72%
    13:00 +29°C° 0,2 mm 3 mps 754 mmHg 74%
    14:00 +29°C° 0,3 mm 3 mps 753 mmHg 74%
    15:00 +29°C° 0,3 mm 3 mps 753 mmHg 75%
    16:00 +29°C° 0,3 mm 3 mps 753 mmHg 76%
    17:00 +28°C° 0 mm 3 mps 753 mmHg 78%
    18:00 +28°C° 0 mm 3 mps 754 mmHg 80%
    19:00 +27°C° 0 mm 3 mps 754 mmHg 83%
    20:00 +27°C° 0,2 mm 3 mps 754 mmHg 83%
    21:00 +27°C° 0,2 mm 3 mps 755 mmHg 84%
    22:00 +27°C° 0,2 mm 3 mps 755 mmHg 85%
    23:00 +27°C° 0,1 mm 3 mps 755 mmHg 85%
    Mostrar más